Weather History for Holdrege, NE

Change the Weather History Date:

Friday, January 18, 2013

  Actual Average Record
Temperature  
Mean Temperature 40 °F -  
Max Temperature 51 °F 36 °F 62 °F (1951)
Min Temperature 29 °F 15 °F -10 °F (1984)
Degree Days  
Heating Degree Days 25    
Moisture  
Dew Point 27 °F    
Average Humidity 64    
Maximum Humidity 80    
Minimum Humidity 43    
Precipitation  
Precipitation 0.00 in - - ()
Sea Level Pressure  
Sea Level Pressure 30.03 in    
Wind  
Wind Speed 9 mph (SW)    
Max Wind Speed 13 mph    
Max Gust Speed -    
Visibility 10 miles    
Events      
Averages and records for this station are not official NWS values.
T = Trace of Precipitation, MM = Missing Value Source: NWS Daily Summary

Daily Weather History Graph

Daily Weather History Graph

Search for Another Location

Airport:

Trip Planner

Search our weather history database for the weather conditions in past years. The results will help you decide how hot, cold, wet, or windy it might be!

Date:

Astronomy

Jan. 18, 2013 Rise Set
Actual Time 7:57 AM CST 5:39 PM CST
Civil Twilight 7:27 AM CST 6:08 PM CST
Nautical Twilight 6:53 AM CST 6:42 PM CST
Astronomical Twilight 6:21 AM CST 7:14 PM CST
Moon 11:34 AM CST (1/18) 12:32 AM CST (1/18)
Length of Visible Light 10h 41m
Length of Day
9h 42m
Waxing Crescent, 47% of the Moon is Illuminated
Jan 18
Waxing Crescent
Jan 18
First Quarter
Jan 26
Full
Feb 3
Last Quarter
Feb 10
New

Hourly Weather History & Observations

Time (CST) Temp. Windchill Dew Point Humidity Pressure Visibility Wind Dir Wind Speed Gust Speed Precip Events Conditions
12:15 AM 34.0 °F 26.6 °F 26.2 °F 73% 30.22 in 10.0 mi SSW 9.2 mph - N/A   Clear
12:35 AM 33.1 °F 25.5 °F 25.7 °F 74% 30.21 in 10.0 mi SSW 9.2 mph - N/A   Clear
12:55 AM 33.3 °F 24.6 °F 25.7 °F 74% 30.20 in 10.0 mi SW 11.5 mph - N/A   Clear
1:15 AM 34.3 °F 25.9 °F 25.7 °F 71% 30.19 in 10.0 mi SW 11.5 mph - N/A   Clear
1:35 AM 34.3 °F 26.5 °F 25.7 °F 71% 30.19 in 10.0 mi SW 10.4 mph - N/A   Clear
1:55 AM 34.2 °F 26.2 °F 25.5 °F 71% 30.18 in 10.0 mi SW 10.4 mph - N/A   Clear
2:15 AM 33.8 °F 26.4 °F 25.3 °F 71% 30.18 in 10.0 mi SW 9.2 mph - N/A   Clear
2:35 AM 32.9 °F 25.9 °F 25.5 °F 74% 30.17 in 10.0 mi SSW 8.1 mph - N/A   Clear
2:55 AM 32.4 °F 24.6 °F 25.5 °F 76% 30.16 in 10.0 mi SW 9.2 mph - N/A   Clear
3:15 AM 32.4 °F 24.6 °F 25.7 °F 76% 30.16 in 10.0 mi SW 9.2 mph - N/A   Clear
3:35 AM 32.4 °F 24.0 °F 25.7 °F 76% 30.14 in 10.0 mi SSW 10.4 mph - N/A   Clear
3:55 AM 32.4 °F 24.0 °F 25.5 °F 76% 30.13 in 10.0 mi SSW 10.4 mph - N/A   Clear
4:15 AM 32.5 °F 24.2 °F 25.7 °F 76% 30.12 in 10.0 mi SW 10.4 mph - N/A   Clear
4:35 AM 32.2 °F 25.0 °F 25.7 °F 77% 30.11 in 10.0 mi SW 8.1 mph - N/A   Clear
4:55 AM 32.0 °F 24.2 °F 25.7 °F 78% 30.09 in 10.0 mi SW 9.2 mph - N/A   Clear
5:15 AM 32.2 °F 24.4 °F 25.7 °F 77% 30.08 in 10.0 mi SW 9.2 mph - N/A   Clear
5:35 AM 32.7 °F 23.4 °F 25.5 °F 75% 30.07 in 10.0 mi SW 12.7 mph - N/A   Clear
5:55 AM 32.2 °F 23.8 °F 25.5 °F 76% 30.07 in 10.0 mi SW 10.4 mph - N/A   Clear
6:15 AM 31.8 °F 23.9 °F 25.0 °F 76% 30.06 in 10.0 mi SW 9.2 mph - N/A   Clear
6:35 AM 31.5 °F 22.9 °F 24.8 °F 76% 30.06 in 10.0 mi SW 10.4 mph - N/A   Clear
6:55 AM 31.1 °F 23.1 °F 24.6 °F 77% 30.06 in 10.0 mi SW 9.2 mph - N/A   Clear
7:15 AM 30.2 °F 22.6 °F 24.3 °F 79% 30.06 in 10.0 mi SW 8.1 mph - N/A   Clear
7:35 AM 30.0 °F 24.1 °F 24.1 °F 79% 30.05 in 10.0 mi SSW 5.8 mph - N/A   Clear
7:55 AM 29.8 °F 21.5 °F 23.9 °F 79% 30.05 in 10.0 mi SW 9.2 mph - N/A   Clear
8:15 AM 29.3 °F 20.8 °F 23.7 °F 80% 30.05 in 10.0 mi SW 9.2 mph - N/A   Clear
8:35 AM 29.3 °F 21.5 °F 23.7 °F 80% 30.06 in 10.0 mi SW 8.1 mph - N/A   Clear
8:55 AM 30.4 °F 22.9 °F 23.9 °F 77% 30.05 in 10.0 mi SW 8.1 mph - N/A   Clear
9:15 AM 32.0 °F 25.6 °F 24.6 °F 74% 30.06 in 10.0 mi SW 6.9 mph - N/A   Clear
9:35 AM 33.1 °F 27.7 °F 24.6 °F 71% 30.06 in 10.0 mi WSW 5.8 mph - N/A   Clear
9:55 AM 35.1 °F 27.9 °F 24.6 °F 66% 30.06 in 10.0 mi WSW 9.2 mph - N/A   Clear
10:15 AM 36.0 °F 30.3 °F 25.2 °F 65% 30.07 in 10.0 mi WSW 6.9 mph - N/A   Clear
10:35 AM 36.7 °F 29.9 °F 25.3 °F 64% 30.06 in 10.0 mi WSW 9.2 mph - N/A   Clear
10:55 AM 38.1 °F 31.7 °F 25.9 °F 61% 30.06 in 10.0 mi WSW 9.2 mph - N/A   Clear
11:15 AM 39.6 °F 34.0 °F 26.4 °F 59% 30.05 in 10.0 mi WSW 8.1 mph - N/A   Clear
11:35 AM 40.3 °F 34.4 °F 27.1 °F 59% 30.04 in 10.0 mi WSW 9.2 mph - N/A   Clear
11:55 AM 42.3 °F 37.3 °F 27.5 °F 56% 30.02 in 10.0 mi WSW 8.1 mph - N/A   Clear
12:15 PM 43.0 °F 38.2 °F 27.5 °F 54% 30.01 in 10.0 mi WSW 8.1 mph - N/A   Clear
12:35 PM 44.2 °F 39.2 °F 28.0 °F 53% 30.00 in 10.0 mi WSW 9.2 mph - N/A   Clear
12:55 PM 45.5 °F 40.8 °F 28.0 °F 51% 29.99 in 10.0 mi WSW 9.2 mph - N/A   Clear
1:15 PM 46.8 °F - 28.6 °F 49% 29.98 in 10.0 mi WSW 10.4 mph - N/A   Clear
1:35 PM 48.4 °F - 28.8 °F 47% 29.98 in 10.0 mi WSW 11.5 mph - N/A   Clear
1:55 PM 49.8 °F - 28.6 °F 44% 29.98 in 10.0 mi WSW 10.4 mph - N/A   Clear
2:15 PM 50.9 °F - 28.9 °F 43% 29.97 in 10.0 mi WSW 9.2 mph - N/A   Clear
2:35 PM 50.7 °F - 29.7 °F 44% 29.97 in 10.0 mi WSW 11.5 mph - N/A   Clear
2:55 PM 51.3 °F - 30.2 °F 44% 29.97 in 10.0 mi WSW 8.1 mph - N/A   Clear
3:15 PM 51.1 °F - 30.6 °F 45% 29.97 in 10.0 mi WSW 10.4 mph - N/A   Clear
3:35 PM 50.9 °F - 30.2 °F 45% 29.97 in 10.0 mi SW 10.4 mph - N/A   Clear
3:55 PM 50.7 °F - 30.2 °F 45% 29.96 in 10.0 mi SW 9.2 mph - N/A   Clear
4:15 PM 50.0 °F - 31.8 °F 50% 29.96 in 10.0 mi SW 8.1 mph - N/A   Clear
4:35 PM 49.5 °F - 30.9 °F 49% 29.97 in 10.0 mi WSW 9.2 mph - N/A   Clear
4:55 PM 47.3 °F - 32.0 °F 55% 29.97 in 10.0 mi SW 9.2 mph - N/A   Clear
5:15 PM 46.4 °F 43.5 °F 32.0 °F 57% 29.97 in 10.0 mi SSW 5.8 mph - N/A   Clear
5:35 PM 44.6 °F 40.7 °F 31.3 °F 60% 29.97 in 10.0 mi SSW 6.9 mph - N/A   Clear
5:55 PM 41.9 °F 36.3 °F 31.1 °F 66% 29.97 in 10.0 mi SSW 9.2 mph - N/A   Clear
6:15 PM 40.3 °F 34.4 °F 30.2 °F 67% 29.97 in 10.0 mi SW 9.2 mph - N/A   Clear
6:35 PM 41.5 °F 36.4 °F 29.8 °F 63% 29.97 in 10.0 mi SW 8.1 mph - N/A   Clear
6:55 PM 40.8 °F 36.9 °F 29.7 °F 64% 29.97 in 10.0 mi SSW 5.8 mph - N/A   Clear
7:15 PM 41.0 °F 37.1 °F 29.3 °F 63% 29.97 in 10.0 mi SSW 5.8 mph - N/A   Clear
7:35 PM 40.3 °F 34.4 °F 28.9 °F 64% 29.97 in 10.0 mi SW 9.2 mph - N/A   Clear
7:55 PM 39.9 °F 34.5 °F 28.9 °F 65% 29.97 in 10.0 mi SW 8.1 mph - N/A   Clear
8:15 PM 41.4 °F 37.6 °F 28.4 °F 60% 29.96 in 10.0 mi WSW 5.8 mph - N/A   Clear
8:35 PM 40.1 °F 36.1 °F 28.2 °F 63% 29.95 in 10.0 mi WSW 5.8 mph - N/A   Clear
8:55 PM 38.5 °F 32.1 °F 27.5 °F 65% 29.96 in 10.0 mi West 9.2 mph - N/A   Clear
9:15 PM 39.6 °F 34.0 °F 27.5 °F 62% 29.96 in 10.0 mi West 8.1 mph - N/A   Clear
9:35 PM 38.1 °F 32.3 °F 27.0 °F 64% 29.95 in 10.0 mi West 8.1 mph - N/A   Clear
9:55 PM 37.9 °F 32.1 °F 27.3 °F 66% 29.95 in 10.0 mi West 8.1 mph - N/A   Clear
10:15 PM 39.4 °F 33.2 °F 27.3 °F 62% 29.95 in 10.0 mi West 9.2 mph - N/A   Clear
10:35 PM 40.3 °F 34.9 °F 26.8 °F 59% 29.94 in 10.0 mi West 8.1 mph - N/A   Clear
10:55 PM 41.0 °F 34.7 °F 26.6 °F 57% 29.93 in 10.0 mi WSW 10.4 mph - N/A   Clear
11:15 PM 41.9 °F 35.4 °F 26.2 °F 54% 29.93 in 10.0 mi WSW 11.5 mph - N/A   Clear
11:35 PM 41.2 °F 34.5 °F 26.4 °F 56% 29.93 in 10.0 mi WSW 11.5 mph - N/A   Clear
11:55 PM 42.3 °F 36.8 °F 25.7 °F 52% 29.92 in 10.0 mi WSW 9.2 mph - N/A   Clear